Location: Atbuku
(36.4936°N, 30.4362°E)
Time: 21:21:42
(UTC+00:00)

YAOGAN 1 - Pass Details

Date: 11 December 2025
Orbit: 605 x 607 km, 97.8° (Epoch: 12 January)

Event Time Altitude Azimuth Distance (km) Brightness Sun altitude
Rises 15:15:38 0° 119° (ESE) 2,855 5.6 -6.7°
Reaches altitude 10° 15:19:01 10° 90° (E) 1,957 4.6 -7.3°
Maximum altitude 15:20:45 12° 65° (ENE) 1,809 4.3 -7.7°
Drops below altitude 10° 15:22:29 10° 41° (NE) 1,961 4.6 -8.0°
Sets 15:25:53 0° 12° (NNE) 2,871 5.6 -8.6°
